Location: A�t Bou Chrif
(32.7193°N, 5.2385°W)
Time: 03:23:40
(UTC+00:00)

CENTAUR R/B - Pass Details

Date: 08 August 2020
Orbit: 754 x 1434 km, 63.5° (Epoch: 17 September)

Event Time Altitude Azimuth Distance (km) Brightness Sun altitude
Exits shadow 21:04:49 16° 66° (ENE) 2,234 4.1 -21.6°
Drops below altitude 10° 21:06:24 10° 56° (NE) 2,692 4.6 -21.9°
Sets 21:09:37 0° 43° (NE) 3,765 5.5 -22.4°
